Temperature
5 5 5 6 6 7 7 7 7 7 8 8 8 8 8 8 9 9 10 10 11 11 12 12 12 13 13 13 13 13 13 13 13 13 13 13 13 12 12 12 12 12 12 12
5 5 6 6 7 7 7 6 6 7 8 8 8 8 8 7 8 9 9 9 10 11 11 12 12 12 12 12 13 12 12 12 12 12 12 12 12 12 12 12 11 11 11 11
4 5 6 6 6 6 6 6 6 7 7 7 8 8 8 8 8 8 9 9 10 10 10 11 11 12 12 12 12 12 12 12 12 12 12 12 12 11 11 11 11 11 11 11
4 5 6 6 6 6 6 7 7 7 7 6 7 7 7 7 7 7 7 8 9 9 10 10 11 11 12 12 12 12 12 12 12 12 11 11 11 11 11 11 10 10 10 10
4 5 5 5 6 6 6 7 7 7 6 6 6 6 6 6 6 6 6 7 8 9 9 10 10 11 11 11 11 11 11 11 11 11 11 11 11 11 10 10 10 10 10 10
4 4 5 5 6 6 6 6 6 5 5 6 6 6 6 5 6 6 6 7 8 8 9 9 10 10 11 11 11 11 11 11 11 11 11 10 10 10 10 10 10 10 9 9
3 4 4 5 5 5 6 5 5 5 5 5 5 5 5 5 5 6 6 6 7 8 8 9 9 10 10 10 10 10 10 10 10 10 10 10 10 10 9 9 9 9 9 9
2 3 3 4 4 4 5 5 5 5 5 4 5 5 4 4 4 5 6 6 6 7 7 8 8 9 9 10 10 10 10 10 10 9 9 9 9 9 9 9 9 9 9 9
2 3 3 4 4 4 4 4 4 4 3 4 4 4 4 4 3 4 4 4 5 6 7 7 8 8 9 9 9 9 9 9 9 9 9 9 8 8 8 8 8 8 8 8
2 2 2 3 4 4 4 3 3 3 4 4 4 4 4 3 3 3 3 3 4 5 6 6 7 7 8 8 9 9 9 9 9 8 8 8 8 8 8 7 7 7 7 7
1 1 2 2 3 3 3 3 3 3 3 3 4 4 3 3 3 2 2 2 3 4 5 5 6 7 7 8 8 8 8 8 8 8 8 7 7 7 7 7 7 7 7 7
0 0 1 1 2 3 3 3 2 3 2 2 2 3 3 2 2 2 2 2 3 3 4 5 5 6 6 7 7 7 7 7 7 7 7 7 7 7 7 6 6 6 6 6
0 0 1 2 2 2 2 2 2 2 1 1 2 3 2 1 2 2 2 2 2 3 3 4 4 5 5 6 6 6 6 6 6 6 6 6 6 6 6 6 6 6 6 6
0 -1 0 1 2 1 1 1 1 1 1 1 2 2 2 1 1 1 1 1 2 2 3 3 4 4 5 5 5 5 6 6 6 6 6 5 5 5 5 5 5 5 5 5
-1 -1 -1 -1 0 0 0 1 1 1 1 2 2 1 2 1 0 1 1 1 1 1 2 3 3 3 4 4 4 5 5 5 5 5 5 5 5 5 5 5 5 5 5 5
-3 -2 -1 -1 0 0 0 0 1 1 0 0 1 1 0 0 0 0 0 0 0 1 1 2 2 3 3 3 4 4 4 4 4 4 4 4 4 4 4 4 4 4 4 4
-3 -3 -2 -1 -1 0 -0 -1 -1 -0 -1 -0 0 0 -1 -1 -1 -1 -0 -0 -0 0 1 1 2 2 2 3 3 3 4 4 4 4 4 4 4 4 4 4 4 4 4 4
-4 -3 -3 -2 -1 -0 -1 -2 -2 -1 -1 -2 -1 -1 -1 -1 -1 -1 -1 -1 -0 0 0 1 1 1 2 2 2 3 3 3 3 3 3 3 3 3 3 3 3 3 3 3
-4 -3 -4 -3 -3 -2 -2 -2 -3 -2 -2 -2 -2 -2 -2 -2 -2 -1 -1 -1 -1 -0 0 0 1 1 1 1 2 2 2 2 2 2 3 2 2 2 2 3 2 2 2 2
-5 -5 -4 -4 -3 -2 -2 -3 -3 -2 -2 -2 -3 -3 -2 -2 -2 -2 -1 -1 -1 -1 -0 -0 0 0 0 1 1 1 1 1 2 2 2 2 2 2 2 2 2 2 1 1
-5 -5 -5 -5 -4 -3 -4 -4 -3 -2 -2 -2 -2 -2 -2 -3 -2 -2 -2 -2 -1 -1 -1 -1 -0 -0 -0 -0 0 0 1 1 1 1 1 1 1 1 1 1 1 1 1 1
-6 -5 -6 -6 -4 -3 -4 -4 -4 -3 -3 -2 -2 -2 -2 -2 -2 -2 -2 -2 -2 -2 -1 -1 -1 -1 -1 -1 -0 -0 -0 -0 -0 -0 0 0 0 0 0 -0 -0 -0 -0 0
-7 -7 -7 -6 -5 -5 -4 -4 -3 -3 -3 -3 -2 -2 -3 -3 -3 -3 -3 -2 -2 -2 -2 -2 -1 -1 -1 -1 -1 -1 -1 -1 -1 -1 -1 -1 -1 -1 -1 -1 -1 -1 -1 -1
-8 -7 -7 -7 -6 -5 -5 -4 -4 -3 -3 -3 -3 -3 -3 -3 -3 -3 -3 -3 -3 -3 -2 -2 -2 -2 -2 -2 -2 -1 -1 -1 -1 -1 -1 -1 -1 -1 -1 -1 -1 -1 -1 -2
-7 -8 -8 -7 -7 -6 -4 -4 -4 -3 -3 -3 -3 -3 -3 -3 -4 -4 -3 -3 -3 -3 -3 -3 -2 -2 -2 -2 -2 -2 -2 -2 -2 -2 -2 -2 -2 -2 -2 -2 -2 -2 -2 -2
-8 -8 -8 -6 -5 -6 -5 -4 -4 -4 -4 -3 -3 -4 -3 -4 -4 -4 -4 -4 -3 -3 -3 -3 -3 -3 -3 -3 -3 -3 -3 -3 -3 -3 -3 -3 -3 -3 -3 -2 -3 -3 -3 -3
Wind_Speed
2 3 5 7 7 5 6 5 4 3 2 3 5 4 4 2 2 4 5 5 6 5 2 3 3 4 5 6 6 6 7 6 6 5 4 4 3 3 2 3 5 5 5 5
2 5 6 4 4 4 5 5 3 1 1 3 3 3 3 2 3 5 7 6 5 3 2 2 2 3 4 6 6 6 6 6 5 4 3 3 3 3 2 3 4 4 5 5
5 3 4 4 4 5 4 7 6 4 1 2 3 2 3 2 1 1 2 4 4 5 5 3 3 3 4 5 6 6 6 6 5 5 5 5 4 3 2 2 1 2 4 4
2 1 3 4 5 5 5 5 6 5 3 1 4 4 5 3 2 3 4 4 4 4 3 3 3 3 3 3 3 4 6 6 5 6 6 7 4 3 3 2 2 2 3 4
2 1 4 5 5 5 3 4 4 4 3 1 2 3 5 2 5 7 6 5 4 4 4 3 3 3 2 2 3 4 5 5 5 5 6 6 4 3 2 2 3 2 2 3
1 1 1 2 2 4 3 4 4 3 2 4 5 5 5 5 8 6 5 5 4 4 3 2 1 2 2 2 2 4 5 5 5 5 5 5 6 5 5 3 3 2 1 2
3 2 2 1 2 1 4 6 2 1 2 4 4 4 6 5 4 5 6 5 4 3 3 3 2 3 3 2 2 4 5 5 4 5 5 5 5 6 6 4 4 3 2 1
1 2 1 1 2 3 4 6 5 4 5 2 2 5 5 3 3 2 3 3 3 3 3 3 3 3 3 3 3 4 5 5 5 5 4 4 5 4 3 3 3 3 2 2
2 2 1 0 1 4 4 4 2 4 2 1 3 4 5 2 2 1 2 2 2 2 2 3 2 2 3 3 3 4 5 5 5 5 4 4 4 4 4 3 3 2 1 2
1 1 2 1 1 1 2 4 4 4 3 2 3 4 4 3 2 0 1 0 0 0 1 1 1 2 2 3 3 3 4 5 4 5 4 3 4 4 4 4 3 2 2 2
2 1 2 1 2 3 1 3 3 3 3 4 3 5 3 4 3 3 2 1 0 0 1 1 1 1 2 2 3 3 3 3 3 4 4 4 3 4 4 3 3 2 2 2
1 2 0 3 2 1 2 2 3 4 3 3 3 5 2 1 1 2 1 0 1 0 0 0 0 1 2 2 3 3 3 3 3 3 4 4 3 4 4 3 2 3 2 2
1 3 2 3 2 2 1 0 1 3 3 3 4 5 2 2 2 1 1 1 1 2 1 1 2 2 1 2 2 2 2 3 3 4 4 4 3 3 3 3 2 2 2 2
2 2 3 6 4 1 1 1 1 3 3 4 6 6 5 3 2 1 1 1 1 1 1 1 1 1 1 1 1 2 2 2 3 4 4 4 3 3 3 3 3 2 2 2
3 1 1 2 2 1 2 3 1 3 4 5 6 6 8 5 3 2 0 0 1 2 1 1 1 1 1 2 1 2 2 2 3 4 4 3 2 3 3 3 2 2 2 2
3 1 1 2 1 1 1 4 4 4 3 4 4 7 5 2 1 1 1 1 1 1 2 1 1 1 1 1 0 1 2 2 3 3 3 3 3 3 3 3 3 3 2 2
1 2 1 2 4 3 3 4 3 3 3 3 6 6 2 1 2 2 2 2 2 2 2 2 1 1 1 1 1 1 2 2 3 3 3 3 3 3 3 3 3 3 2 1
2 2 1 1 3 2 4 1 1 3 3 3 3 2 2 2 2 2 2 2 2 2 2 2 2 1 1 0 1 1 2 3 3 3 3 3 3 3 3 3 3 2 2 1
1 3 2 1 1 4 5 2 1 1 4 2 3 3 2 1 3 2 1 1 2 3 3 2 2 1 0 1 1 2 2 3 3 3 2 2 3 4 3 3 2 2 2 1
4 3 3 2 2 4 4 3 3 0 3 3 1 2 2 1 1 3 2 2 2 2 2 2 1 1 1 1 2 3 2 2 2 2 2 2 3 3 3 3 2 2 2 1
2 2 2 2 3 5 4 4 1 3 5 3 2 2 2 2 4 3 1 1 2 2 2 1 1 1 0 1 3 3 2 1 1 1 2 2 2 3 3 3 2 2 2 2
2 2 3 3 3 6 2 1 2 5 4 3 2 2 2 2 2 1 1 1 1 2 2 1 1 1 1 1 3 2 1 0 1 2 3 2 2 2 3 3 2 2 2 2
4 5 4 5 6 4 2 4 4 3 4 4 3 3 2 2 2 1 1 1 1 2 1 1 1 1 2 1 2 2 0 1 2 3 3 2 3 2 2 3 2 2 1 1
3 2 3 4 6 6 5 4 5 4 4 4 3 2 2 2 2 1 1 1 1 1 1 1 1 1 1 2 1 1 1 2 3 3 2 2 3 2 2 1 1 1 1 1
4 3 3 4 6 5 5 4 6 5 4 3 3 2 2 2 2 2 1 1 1 1 1 1 1 1 1 1 1 1 1 2 3 2 2 2 2 2 2 1 1 1 1 2
4 5 5 6 5 4 5 4 3 3 3 3 2 2 1 1 2 1 1 1 1 1 1 1 1 1 1 1 1 1 0 2 3 2 2 2 2 1 1 1 1 1 1 2
Wind_Direction
170 156 197 206 201 179 169 172 186 218 212 174 195 226 250 252 191 196 194 185 187 193 183 142 142 140 135 136 144 152 149 148 145 140 141 142 147 143 129 121 130 135 134 137
136 215 219 201 180 164 164 172 188 223 265 178 178 244 255 223 212 210 201 195 192 185 166 144 132 132 146 154 157 158 159 155 155 153 143 130 129 132 126 113 111 129 136 143
183 222 189 174 176 181 194 185 182 176 52 89 123 279 253 238 204 207 203 193 187 188 187 181 158 158 149 158 165 168 163 156 153 138 120 106 92 83 94 112 129 128 141 144
228 270 171 180 196 181 210 191 169 157 138 202 157 218 255 224 222 223 220 202 197 195 186 179 171 166 168 173 159 154 153 149 146 140 145 149 153 161 177 164 155 125 130 135
239 192 176 198 211 182 183 165 162 154 148 135 159 181 262 211 226 231 224 214 205 198 185 180 180 177 165 153 149 148 142 141 143 145 151 150 141 133 123 126 134 127 97 109
298 306 182 204 213 178 137 101 80 74 111 204 199 180 242 213 216 218 214 211 204 187 180 175 145 130 111 97 121 139 139 138 141 143 145 149 145 136 134 141 148 143 118 83
350 331 350 98 112 123 129 125 126 159 199 228 178 183 234 238 231 224 214 203 193 170 169 169 145 139 131 124 139 144 141 138 141 145 147 150 148 148 156 162 165 158 152 149
151 271 263 19 160 176 189 159 164 179 194 247 180 214 242 273 289 242 191 169 159 159 166 185 191 172 162 154 156 153 150 145 144 148 150 144 140 144 149 153 157 165 174 166
175 250 288 260 352 148 159 184 158 121 97 145 230 272 294 319 350 41 104 123 159 172 175 197 195 176 171 166 173 172 160 151 151 151 141 137 140 140 140 139 137 141 136 136
129 233 299 317 61 24 157 149 120 132 154 212 265 248 234 251 251 276 101 120 278 226 181 204 182 181 185 179 168 158 159 159 155 149 148 148 146 139 133 129 134 136 133 125
51 108 327 43 166 196 121 135 126 130 155 165 219 256 229 209 202 192 199 209 224 236 216 225 220 187 167 146 142 143 147 138 141 146 141 136 135 130 130 135 143 135 128 138
39 113 292 268 276 183 149 159 150 164 194 176 183 263 320 224 192 157 180 295 9 13 344 10 43 84 99 121 132 138 141 142 145 143 138 134 128 126 129 134 134 124 124 135
95 109 68 351 357 33 73 142 158 132 133 170 188 253 347 19 31 62 88 354 2 13 30 40 54 82 103 119 124 131 140 143 132 127 125 123 127 134 138 136 125 123 122 116
81 112 176 207 229 202 266 289 211 155 183 207 223 239 283 305 306 314 1 357 12 16 23 49 47 50 77 100 121 125 126 131 130 127 125 128 139 144 139 126 123 125 125 121
68 89 254 273 276 218 235 269 233 201 210 216 238 237 256 251 240 233 214 26 32 10 9 42 50 41 54 60 79 100 113 123 129 129 129 135 135 130 122 117 116 111 110 110
48 107 39 330 359 41 316 307 263 245 239 239 255 269 266 252 222 211 245 211 290 320 313 320 346 23 36 47 71 112 118 124 123 128 132 125 120 122 123 123 117 103 93 86
44 91 57 292 320 3 309 289 249 240 236 204 231 248 209 224 226 228 223 218 244 267 287 289 278 259 264 252 186 166 159 129 123 127 127 125 123 119 116 117 111 107 96 84
133 117 119 337 24 251 252 336 250 243 267 259 255 248 219 232 277 274 224 227 257 272 279 293 294 293 312 7 83 107 116 123 123 122 122 124 125 125 121 118 117 116 118 110
144 137 112 114 236 279 297 311 321 253 291 291 252 265 282 12 14 324 299 266 260 273 282 285 287 287 51 58 95 105 104 109 113 120 128 134 135 136 134 131 126 124 121 104
53 82 116 124 182 241 265 305 313 131 294 312 287 243 238 48 291 268 302 344 322 315 320 321 333 32 75 39 110 112 112 108 119 136 137 132 134 138 142 143 139 128 126 120
42 48 126 171 222 265 281 301 14 166 259 307 286 252 223 220 233 251 288 343 336 335 335 345 21 64 70 108 112 114 111 137 173 122 115 114 122 128 131 123 123 126 120 105
179 168 184 161 200 253 293 68 187 242 298 302 278 257 240 243 266 261 287 311 343 351 353 4 46 38 16 93 118 118 125 164 112 105 107 110 108 110 112 113 108 114 122 114
204 200 195 198 220 260 245 238 270 287 289 288 276 278 251 267 272 276 287 306 334 341 343 354 69 56 19 52 122 135 184 111 107 103 105 107 98 95 111 124 123 110 110 115
267 218 201 253 266 268 273 284 299 293 279 282 276 273 258 266 266 275 267 302 336 341 346 359 58 69 8 13 63 116 132 119 119 120 121 118 111 101 92 103 121 132 148 164
239 194 212 258 276 299 287 278 286 293 298 305 305 286 250 226 247 252 258 274 302 322 332 1 74 100 333 14 58 63 112 128 126 128 131 124 121 125 113 96 118 156 219 216
211 194 196 235 237 227 262 282 296 294 302 300 306 316 306 217 236 250 253 263 274 294 338 13 28 53 360 27 45 26 133 144 141 140 144 143 138 136 130 114 50 11 325 320
Height
1465 1469 1470 1470 1470 1472 1475 1478 1481 1481 1480 1482 1484 1484 1484 1484 1485 1486 1487 1489 1491 1493 1496 1499 1501 1504 1507 1510 1513 1515 1518 1521 1523 1525 1527 1529 1532 1534 1536 1538 1540 1542 1543 1544
1468 1469 1468 1468 1470 1472 1474 1478 1481 1481 1479 1481 1484 1485 1484 1484 1484 1484 1486 1487 1489 1492 1494 1497 1499 1502 1505 1508 1510 1513 1516 1519 1521 1523 1525 1528 1530 1532 1534 1536 1538 1540 1542 1543
1467 1468 1467 1468 1471 1473 1474 1477 1479 1481 1481 1481 1484 1486 1485 1483 1484 1484 1485 1486 1488 1490 1492 1495 1497 1500 1503 1506 1509 1511 1514 1516 1519 1521 1523 1526 1528 1530 1532 1533 1535 1537 1539 1540
1468 1467 1467 1468 1471 1471 1475 1474 1476 1478 1483 1488 1486 1492 1485 1483 1484 1483 1484 1485 1486 1489 1491 1493 1495 1498 1501 1504 1506 1509 1512 1514 1517 1519 1521 1522 1524 1526 1529 1531 1532 1534 1536 1538
1469 1468 1468 1469 1469 1471 1473 1473 1476 1479 1484 1489 1489 1493 1488 1484 1483 1482 1482 1483 1484 1487 1489 1491 1494 1496 1499 1502 1504 1507 1509 1512 1514 1516 1518 1520 1522 1525 1527 1529 1530 1532 1534 1535
1469 1469 1469 1469 1469 1471 1472 1476 1478 1482 1485 1489 1487 1491 1488 1484 1479 1478 1479 1481 1482 1484 1487 1490 1492 1495 1497 1499 1502 1504 1507 1509 1512 1514 1516 1518 1520 1522 1524 1526 1528 1529 1531 1532
1472 1470 1469 1469 1471 1472 1473 1479 1486 1488 1490 1488 1485 1487 1484 1477 1476 1476 1477 1478 1480 1482 1485 1487 1490 1492 1495 1497 1499 1502 1504 1507 1509 1511 1513 1515 1518 1520 1522 1523 1525 1526 1528 1529
1477 1476 1472 1470 1471 1473 1475 1477 1484 1487 1489 1490 1487 1485 1481 1477 1475 1475 1475 1477 1479 1481 1483 1485 1488 1490 1492 1495 1497 1499 1502 1504 1507 1509 1511 1513 1515 1517 1519 1521 1523 1524 1525 1526
1478 1477 1472 1470 1471 1473 1475 1479 1480 1487 1494 1493 1489 1486 1480 1475 1474 1474 1475 1476 1477 1479 1482 1483 1485 1488 1490 1492 1495 1497 1500 1502 1504 1507 1509 1511 1513 1515 1517 1519 1520 1522 1523 1524
1478 1478 1474 1472 1472 1473 1475 1477 1482 1486 1490 1490 1487 1485 1480 1477 1475 1475 1476 1476 1477 1478 1480 1482 1483 1486 1488 1490 1493 1495 1497 1500 1502 1504 1506 1508 1510 1512 1514 1516 1517 1519 1520 1521
1478 1481 1479 1476 1476 1476 1477 1479 1480 1485 1486 1491 1490 1483 1475 1474 1474 1475 1476 1476 1476 1477 1478 1480 1481 1483 1486 1488 1490 1492 1495 1497 1499 1501 1503 1505 1507 1509 1511 1513 1515 1516 1518 1519
1480 1483 1483 1479 1475 1475 1476 1477 1479 1483 1490 1491 1490 1484 1474 1474 1474 1474 1475 1476 1476 1477 1478 1479 1480 1481 1483 1485 1487 1490 1492 1494 1497 1499 1501 1503 1504 1506 1508 1510 1512 1513 1515 1516
1480 1484 1484 1480 1481 1479 1478 1479 1480 1482 1489 1491 1488 1482 1475 1474 1474 1474 1475 1475 1476 1476 1477 1478 1479 1480 1481 1483 1485 1487 1490 1492 1494 1496 1498 1500 1502 1504 1505 1507 1508 1510 1511 1512
1480 1485 1485 1482 1478 1480 1481 1481 1481 1482 1485 1487 1482 1478 1476 1475 1475 1475 1475 1475 1475 1476 1476 1477 1477 1478 1480 1481 1483 1485 1487 1490 1492 1494 1495 1497 1499 1501 1503 1504 1506 1507 1509 1510
1481 1487 1486 1483 1480 1480 1481 1481 1480 1480 1480 1480 1477 1477 1474 1474 1475 1475 1475 1475 1475 1476 1476 1476 1477 1477 1478 1480 1481 1483 1485 1487 1489 1491 1493 1495 1497 1498 1500 1502 1503 1504 1506 1507
1485 1488 1486 1484 1480 1480 1480 1480 1478 1478 1479 1479 1478 1477 1473 1474 1475 1475 1474 1474 1474 1475 1475 1476 1476 1476 1477 1478 1479 1481 1483 1485 1487 1488 1490 1492 1494 1495 1497 1499 1500 1502 1503 1503
1489 1489 1489 1488 1484 1479 1483 1481 1479 1479 1478 1477 1477 1475 1473 1474 1474 1473 1473 1473 1473 1474 1474 1474 1475 1475 1476 1477 1478 1479 1480 1482 1484 1486 1487 1489 1491 1492 1494 1496 1497 1499 1499 1500
1489 1491 1494 1492 1489 1488 1483 1481 1480 1479 1477 1476 1474 1473 1473 1473 1473 1473 1473 1473 1473 1473 1473 1473 1473 1474 1475 1475 1476 1477 1479 1480 1482 1483 1485 1486 1488 1489 1491 1493 1494 1495 1496 1497
1487 1490 1495 1496 1496 1489 1483 1481 1481 1480 1477 1474 1474 1472 1473 1473 1473 1473 1473 1473 1472 1472 1472 1472 1472 1473 1473 1474 1474 1475 1476 1478 1479 1481 1482 1484 1485 1486 1488 1489 1491 1492 1493 1494
1489 1491 1497 1499 1496 1490 1483 1481 1480 1481 1478 1473 1472 1472 1471 1472 1474 1472 1471 1471 1470 1470 1471 1471 1471 1471 1472 1472 1473 1474 1475 1476 1477 1479 1480 1481 1483 1484 1485 1486 1488 1489 1490 1490
1496 1498 1501 1501 1500 1490 1484 1481 1480 1483 1478 1473 1472 1471 1470 1471 1471 1470 1469 1469 1469 1469 1469 1469 1470 1470 1470 1471 1471 1472 1473 1474 1476 1477 1478 1479 1480 1481 1483 1484 1485 1486 1487 1487
1498 1499 1501 1501 1498 1491 1481 1480 1481 1478 1473 1472 1470 1470 1469 1468 1468 1467 1467 1467 1467 1467 1468 1468 1468 1468 1469 1469 1470 1470 1471 1472 1473 1474 1475 1477 1478 1479 1480 1481 1482 1483 1484 1484
1497 1495 1494 1493 1489 1482 1479 1477 1476 1474 1472 1471 1470 1469 1468 1467 1466 1466 1466 1466 1466 1466 1466 1467 1467 1467 1467 1468 1468 1468 1469 1470 1471 1472 1473 1474 1475 1477 1478 1479 1480 1480 1481 1482
1492 1490 1491 1489 1482 1478 1477 1475 1474 1473 1471 1469 1468 1467 1467 1466 1465 1464 1464 1465 1465 1465 1465 1466 1466 1465 1465 1466 1466 1467 1467 1468 1469 1470 1471 1472 1473 1474 1476 1477 1478 1478 1479 1479
1488 1488 1487 1485 1479 1476 1473 1472 1471 1470 1468 1467 1466 1466 1465 1464 1463 1463 1463 1463 1463 1464 1464 1465 1464 1464 1464 1465 1465 1466 1466 1467 1467 1468 1469 1470 1471 1472 1473 1475 1475 1476 1477 1477
1481 1482 1482 1478 1473 1473 1471 1470 1469 1468 1467 1466 1464 1463 1463 1463 1462 1462 1462 1462 1462 1462 1463 1463 1463 1462 1463 1463 1463 1464 1465 1465 1465 1466 1467 1468 1469 1470 1471 1472 1473 1474 1475 1475